MONITOR-4 (RS57S)

Last updated on Thu Oct 30 2025 00:03:10 GMT+0000 (Coordinated Universal Time)

1 57182U 23091S 25302.44622360 .00015496 00000+0 67798-3 0 9991 2 57182 97.5426 359.6454 0013224 185.2361 174.8739 15.22071648129122
UTC large
Height (km)
Speed (km/s)
/
Latitude / Longitude
Inclination (degrees)
Orbital Period (minutes)
Azimuth
Elevation
Range (km)
Doppler Factor

Next 0 passes for location: London (51.5072 / 0.1276)

Sorry there are no passes over London.